Dewpoint
56 57 55 55 55 55 55 55 56 57 56 56 56 56 57 57 56 55 26 24 33 56 67 64 54 52 60 61 61 58 45 42 41 42 41 47 43 47 51 50 53 56 55 58 66
57 56 56 56 56 56 56 56 56 56 56 56 56 56 57 57 49 34 29 41 56 62 50 45 45 48 55 55 61 59 46 43 46 47 46 44 43 45 46 46 47 49 54 62 66
57 57 56 56 56 56 57 57 57 56 56 56 56 56 57 57 33 10 47 48 64 56 47 41 42 49 49 54 57 58 53 50 49 50 50 49 47 47 45 44 45 47 49 62 65
57 57 57 56 56 56 56 56 56 56 56 56 56 56 57 53 20 34 64 54 64 48 43 39 43 45 43 46 51 52 52 55 52 44 45 42 49 46 46 44 46 50 53 61 64
57 57 57 56 56 56 56 56 56 56 56 56 56 57 53 22 -1 57 64 60 62 41 31 29 39 35 36 39 41 43 41 35 38 37 37 45 39 45 45 46 47 51 57 62 62
57 56 56 56 56 56 55 55 55 55 55 56 57 57 38 -5 22 57 56 52 46 38 33 34 32 36 40 39 34 34 29 28 29 30 34 38 36 40 30 39 38 46 57 61 61
56 56 56 56 56 55 55 55 55 55 56 56 57 54 34 -2 39 48 44 37 41 36 32 36 40 41 39 34 30 26 27 28 28 27 21 36 18 18 21 25 45 48 57 60 60
56 56 56 56 55 55 54 54 55 56 56 56 58 50 13 24 44 43 40 43 39 35 38 39 40 39 36 30 21 25 24 23 22 18 18 17 15 16 20 19 27 54 56 60 61
56 56 56 55 54 54 53 53 56 56 56 58 51 42 30 41 34 32 41 31 43 40 37 38 36 29 17 18 15 17 19 16 17 19 18 17 15 15 18 17 16 47 55 56 59
55 55 55 54 54 53 52 52 57 55 55 54 48 35 33 27 29 17 37 33 14 31 30 37 27 23 16 12 11 13 15 16 15 18 18 17 15 15 16 17 15 28 54 55 56
55 55 55 54 53 52 47 35 25 19 25 19 23 29 29 27 25 21 20 31 17 16 12 19 27 22 17 18 15 14 15 14 15 17 18 16 16 14 16 20 24 27 49 55 55
55 55 55 53 52 50 42 31 32 31 19 22 21 24 25 23 19 18 18 17 17 15 16 16 13 14 16 17 15 15 14 14 15 18 19 13 12 16 24 31 31 39 44 49 53
55 55 54 52 51 43 39 35 37 26 21 22 22 20 17 20 18 16 16 16 16 16 17 15 14 17 17 17 17 16 15 16 14 15 12 12 12 20 33 38 40 42 44 45 48
55 54 53 51 44 44 32 38 40 31 22 20 20 18 17 18 13 16 17 16 16 14 16 15 16 17 19 18 16 15 17 18 15 9 9 12 10 14 36 38 40 42 44 44 46
54 54 53 52 47 42 35 43 36 26 13 22 18 18 15 13 14 14 18 16 14 13 14 14 15 19 18 18 14 17 13 12 10 10 10 12 11 12 37 38 41 43 44 45 46
54 53 52 50 48 46 45 41 29 23 18 16 16 16 14 13 13 15 16 17 18 16 17 16 19 20 19 20 21 21 18 18 17 14 12 12 14 13 31 38 42 46 47 48 49
53 51 51 50 42 46 44 30 23 21 24 19 19 21 18 19 16 17 14 15 13 12 13 16 21 22 22 18 21 21 20 17 15 15 15 16 15 15 36 43 45 45 47 49 52
52 51 50 49 49 48 33 26 19 25 26 26 22 20 21 23 22 19 13 13 19 16 16 13 14 22 23 21 21 20 22 21 18 17 18 17 14 28 40 46 49 48 48 51 52
50 47 45 46 49 43 27 20 22 25 28 28 24 20 21 23 22 22 19 20 22 21 16 19 19 23 25 24 22 20 18 22 20 21 15 18 29 36 44 44 45 46 52 52 56
47 44 41 43 45 31 27 23 26 28 29 29 22 22 21 23 21 24 19 25 22 23 23 22 17 22 25 24 24 22 25 26 26 22 22 24 25 25 30 36 42 44 47 47 55
45 37 40 44 33 29 27 27 28 30 30 28 25 23 23 25 24 25 22 26 29 24 24 23 21 20 24 22 22 25 26 27 27 27 24 22 23 30 34 42 44 45 49 47 50
44 25 39 37 27 31 29 30 31 31 31 29 29 26 24 26 25 25 24 28 29 28 24 25 22 21 22 24 26 25 27 26 24 23 25 26 26 31 45 46 48 47 49 48 52
44 42 44 38 27 31 34 34 33 32 32 31 28 26 26 24 22 26 29 31 31 28 25 24 23 21 23 25 28 26 28 27 28 29 25 23 23 30 41 47 49 48 49 49 51
44 35 41 40 38 36 35 34 33 35 32 33 30 26 25 25 26 24 28 31 32 36 35 27 24 22 23 24 27 27 28 28 26 25 25 25 27 30 35 43 47 49 51 53 55
44 41 43 40 40 38 37 35 34 34 35 32 28 26 26 24 29 29 29 30 32 31 29 27 27 27 27 27 28 27 26 25 27 30 29 29 34 37 44 48 50 52 54 55 56
44 44 45 43 41 38 36 37 36 36 35 31 30 30 25 26 27 26 25 27 26 27 27 28 26 27 25 26 26 25 25 26 27 36 37 40 42 44 48 49 51 53 54 55 56
46 47 45 43 41 39 36 40 38 38 36 35 34 29 25 27 28 25 25 24 24 24 24 25 25 24 21 23 25 22 23 25 35 43 39 36 37 43 45 49 50 52 53 54 55
Wind_Speed
22 22 21 20 20 20 19 19 19 17 16 15 15 14 13 11 9 3 8 8 6 20 18 13 1 4 4 3 3 3 2 5 4 4 3 3 2 3 4 2 3 4 7 1 22
22 22 22 22 22 21 20 20 20 18 16 15 14 13 11 9 2 10 10 5 13 25 15 17 11 8 3 2 1 0 1 6 4 5 10 7 6 4 2 10 6 5 5 18 26
23 23 23 23 24 23 23 23 21 19 16 15 13 10 8 4 2 4 1 12 21 17 13 7 13 8 3 3 4 4 4 5 14 16 11 10 13 13 17 21 20 13 18 24 26
23 24 24 25 25 24 24 23 21 19 16 14 11 8 4 1 4 3 1 17 23 7 11 11 11 6 4 5 5 4 11 13 11 6 7 9 3 4 19 26 17 15 21 27 24
24 25 26 26 26 25 24 24 21 18 15 12 8 5 1 1 5 1 12 15 12 7 9 8 11 6 3 3 2 10 12 8 10 11 9 10 18 12 13 27 23 14 18 23 28
25 26 27 28 27 26 24 23 21 16 12 9 5 2 2 3 2 10 16 15 10 13 8 8 9 9 1 3 3 3 13 16 10 10 10 10 12 1 15 14 17 11 23 30 36
27 28 29 30 30 27 25 23 19 13 9 5 5 3 2 3 2 12 15 9 12 10 6 6 5 2 2 5 2 4 12 19 20 3 3 3 10 7 11 11 12 4 24 30 37
27 28 30 31 33 30 27 23 11 3 3 5 7 1 2 1 6 10 7 4 7 8 3 3 5 1 2 3 6 5 3 6 5 8 5 1 11 19 6 14 9 11 21 27 31
28 29 31 33 34 31 27 14 7 9 7 9 3 0 3 2 2 7 9 5 7 6 4 3 3 1 2 1 6 6 4 6 11 1 5 4 14 16 20 7 12 13 22 25 25
28 29 32 34 35 33 24 2 12 10 5 3 3 1 2 1 1 2 6 6 2 5 5 2 3 0 2 1 4 5 8 7 12 2 14 14 12 20 11 9 13 8 22 22 23
29 30 32 34 36 32 11 2 7 2 2 3 4 3 7 8 5 5 5 8 2 3 4 2 3 8 7 12 8 4 5 11 21 11 11 13 18 22 18 18 20 13 9 16 26
29 30 32 35 34 25 3 8 4 5 9 5 8 8 10 2 3 2 11 6 5 5 5 2 8 12 7 7 10 9 9 10 17 12 6 12 18 12 18 14 11 20 16 6 5
29 29 31 37 35 6 3 6 5 5 3 8 5 3 1 9 3 4 11 4 4 5 8 5 3 2 6 8 6 5 6 6 7 6 3 10 7 13 10 16 17 18 11 15 12
30 29 28 39 3 9 2 4 11 6 4 2 2 1 4 3 3 6 11 5 2 2 7 5 3 5 5 4 6 1 13 6 6 4 4 4 3 5 8 15 17 20 21 20 14
31 29 24 12 8 5 5 16 8 2 3 2 1 1 2 3 4 1 5 3 6 4 2 4 2 3 10 5 4 2 1 6 3 5 0 0 2 5 4 7 8 14 18 19 19
34 31 23 2 2 7 13 13 2 2 2 3 4 4 1 1 2 3 2 2 1 4 2 6 3 1 1 2 4 1 2 5 4 3 2 3 3 6 4 2 3 4 8 12 19
37 34 15 3 3 8 12 2 2 1 5 5 4 6 3 6 4 5 2 6 6 1 5 6 2 3 3 2 2 9 8 5 2 2 7 1 3 10 3 4 5 6 8 9 11
41 30 1 5 10 11 3 3 2 2 3 5 5 4 3 7 5 7 1 2 5 1 1 3 4 4 9 2 3 6 4 2 5 5 8 1 6 3 3 3 5 7 9 9 9
31 10 3 5 2 1 4 1 2 3 4 8 8 3 3 5 3 7 6 3 5 2 4 1 2 3 4 2 1 2 4 1 2 1 2 4 5 4 4 5 7 10 10 12 13
16 10 7 11 1 5 4 2 1 2 6 2 1 1 4 6 4 7 3 7 2 4 1 3 3 2 2 1 8 5 2 2 5 3 4 5 5 4 4 10 11 13 11 13 13
6 6 3 13 2 8 4 0 2 8 4 2 2 2 1 1 1 3 2 3 5 4 5 3 2 3 3 5 4 4 3 6 4 2 2 4 7 6 9 7 11 13 11 14 16
6 4 8 7 5 3 2 1 5 6 4 3 2 4 4 3 0 1 1 2 6 2 1 1 4 3 2 4 3 3 4 4 3 4 4 4 13 7 9 9 10 15 15 14 14
8 5 6 3 0 2 4 4 3 5 7 7 4 5 4 1 2 1 2 4 9 3 3 6 1 1 2 2 2 1 3 3 4 3 10 10 9 5 11 9 8 13 18 18 16
4 5 5 8 3 3 3 2 5 10 1 7 3 3 5 2 3 1 4 3 5 4 8 3 5 7 9 6 3 5 8 7 7 6 8 13 20 24 19 13 13 14 17 18 20
3 1 1 3 4 4 2 3 3 7 6 11 4 8 3 2 1 1 2 4 1 6 4 3 3 7 8 11 7 13 14 12 13 14 12 16 11 19 12 12 12 10 13 16 19
1 2 4 2 4 3 2 2 3 4 2 4 6 10 6 2 0 1 1 1 3 3 2 1 3 4 9 15 17 15 19 19 22 13 13 14 14 9 7 10 11 13 12 15 17
2 1 1 3 2 1 2 1 1 4 4 3 9 6 5 4 10 7 7 4 5 5 5 3 4 6 19 12 7 12 15 11 5 6 6 12 8 6 16 15 15 14 12 15 17
Wind_Direction
348 346 345 338 335 332 329 323 319 322 321 319 317 318 321 324 311 146 243 217 172 154 127 135 100 143 162 192 149 132 106 181 209 204 276 250 247 223 293 345 320 140 94 339 137
344 341 336 332 329 324 318 314 316 317 318 315 313 316 319 332 308 255 242 206 147 146 131 154 163 145 156 207 194 38 165 222 216 225 273 247 228 255 289 263 205 164 208 138 148
339 336 331 329 325 321 315 312 311 312 314 312 311 316 316 315 310 253 206 184 164 158 147 139 147 142 173 157 195 189 231 250 273 259 248 262 246 253 267 272 264 211 213 154 161
335 332 329 326 322 319 314 312 309 307 308 306 306 313 312 180 131 337 255 164 163 153 143 116 146 161 184 197 198 229 251 244 278 306 317 296 232 240 227 251 249 208 195 172 159
333 331 327 324 320 318 316 311 303 302 302 295 298 298 143 131 251 43 114 148 148 164 164 159 166 166 199 204 234 234 272 278 243 271 261 275 278 261 266 261 268 213 169 158 165
333 332 328 325 323 321 319 311 306 302 292 283 278 212 115 127 119 149 130 141 171 174 187 172 197 205 260 259 294 263 297 296 273 260 232 233 273 151 270 273 276 220 164 171 186
334 333 330 326 326 329 326 317 310 299 277 255 220 202 126 161 23 159 146 169 173 181 174 205 197 150 191 297 307 296 312 320 307 5 311 185 303 253 292 315 276 213 174 182 197
334 332 331 329 330 334 331 327 324 289 213 182 179 206 219 283 120 162 191 174 190 216 246 220 193 191 235 306 349 335 23 322 297 327 351 103 301 308 338 333 286 190 184 192 203
334 334 333 332 333 336 335 344 75 115 128 148 114 331 108 103 229 224 183 220 174 159 220 134 123 118 22 13 329 15 299 299 319 298 4 38 309 305 328 335 323 205 200 204 211
335 335 336 335 334 335 338 149 107 106 119 215 258 82 306 101 284 136 195 202 122 120 121 134 65 113 39 120 305 299 307 294 290 291 339 326 301 308 329 325 315 281 201 210 214
337 337 336 335 333 334 360 90 8 6 38 270 267 272 290 306 278 203 157 158 173 77 168 61 173 222 233 226 254 264 257 274 283 282 338 300 296 311 340 9 19 12 233 219 223
337 336 336 334 332 329 355 77 102 273 313 272 256 261 266 251 298 238 141 154 171 167 134 93 242 244 250 232 240 252 271 276 281 303 175 314 310 40 22 12 26 48 38 278 261
336 336 337 332 328 21 34 106 314 151 295 301 220 233 218 156 212 216 167 159 177 171 197 212 231 310 240 257 211 230 209 253 242 359 335 327 333 61 4 24 13 24 32 33 43
334 334 338 332 29 339 341 304 323 190 357 346 360 91 145 214 272 209 182 151 160 217 172 238 274 320 18 254 170 171 226 261 298 332 341 27 288 17 34 34 16 0 358 351 358
330 331 334 333 297 309 312 331 335 131 93 336 30 125 147 182 312 237 179 149 200 187 151 300 308 357 56 23 216 267 315 171 204 232 193 299 133 290 100 37 16 353 344 337 342
327 325 332 97 244 253 318 322 86 28 111 6 351 2 349 264 286 333 179 80 89 148 241 266 255 244 297 195 24 339 142 63 75 103 220 217 178 259 249 171 287 286 310 322 330
326 322 317 206 285 324 324 43 27 157 336 4 358 355 359 342 351 339 225 199 222 279 307 348 18 326 22 79 58 59 48 349 288 260 253 202 228 253 195 208 222 259 294 303 319
327 324 223 240 288 323 3 53 189 72 349 343 358 348 94 15 1 358 37 48 32 109 139 265 286 21 347 47 336 45 90 189 264 235 266 108 239 242 195 192 259 283 296 299 297
327 334 355 321 279 143 51 93 150 49 345 327 322 66 16 358 14 21 31 19 23 166 163 174 156 312 21 56 122 3 33 219 190 55 258 272 285 279 199 270 301 311 318 328 336
335 336 342 332 156 25 67 119 120 283 327 326 302 76 24 1 43 23 44 359 36 45 133 166 333 343 308 21 45 76 126 10 22 295 289 303 287 246 296 270 276 301 312 328 323
5 2 317 347 4 42 92 72 305 293 323 258 274 304 58 53 83 342 338 61 13 17 82 129 152 290 346 15 352 52 51 68 110 108 331 293 272 227 302 300 280 289 300 315 316
3 340 340 358 30 40 81 311 315 307 347 337 262 246 226 183 216 240 112 58 344 307 74 96 137 207 226 305 287 192 112 113 100 270 230 241 264 261 256 272 285 293 296 304 311
351 288 322 5 63 36 330 313 279 344 340 358 340 12 16 293 322 281 32 14 22 70 158 182 11 271 307 52 352 221 177 154 130 115 223 261 266 295 283 279 278 290 303 306 311
6 344 335 44 54 101 24 335 338 346 319 354 307 20 20 36 360 178 332 11 9 47 43 103 146 204 244 236 170 235 229 237 193 217 247 241 282 291 298 267 291 308 312 313 314
27 11 87 342 13 5 333 7 13 1 340 9 47 20 298 259 91 129 345 319 14 6 37 61 272 206 241 240 224 250 267 273 222 242 248 272 268 281 274 306 306 304 301 308 309
12 6 0 277 306 314 356 26 66 338 286 355 16 333 354 254 138 221 233 280 286 336 37 16 261 212 254 252 254 254 258 260 257 253 245 263 263 276 294 317 315 301 304 304 301
334 307 139 313 338 230 187 73 24 358 286 281 336 313 304 356 303 278 232 248 252 260 262 228 226 284 288 285 277 278 256 235 224 223 238 258 264 328 315 326 320 312 305 299 298